Location: Le Rocchette
(44.3500°N, 7.8333°E)
Time: 06:24:00
(UTC+00:00)

Cosmos 2112 Rocket - Pass Details

Date: 17 November 2019
Orbit: 755 x 788 km, 74.1° (Epoch: 12 December)

Event Time Altitude Azimuth Distance (km) Brightness Sun altitude
Exits shadow 04:32:46 39° 256° (WSW) 1,164 4.4 -20.3°
Drops below altitude 10° 04:37:37 10° 190° (S) 2,338 6.5 -19.4°
Sets 04:40:07 0° 183° (S) 3,264 7.3 -19.0°
